Location: Les Gen�tes
(46.3104°N, 1.5969°E)
Time: 10:55:43
(UTC+00:00)

Cosmos 2098 Rocket - Pass Details

Date: 01 June 2020
Orbit: 366 x 1188 km, 82.9° (Epoch: 07 July)

Event Time Altitude Azimuth Distance (km) Brightness Sun altitude
Exits shadow 23:20:05 36° 171° (S) 1,723 4.7 -21.1°
Maximum altitude 23:23:20 75° 94° (E) 1,213 4.4 -21.2°
Drops below altitude 10° 23:30:49 10° 12° (NNE) 3,121 7.7 -21.3°
Sets 23:33:31 0° 11° (N) 4,061 8.6 -21.3°
